Location: Unspecified
(47.6579°N, 23.5637°E)
Time: 11:53:32
(UTC+02:00)

Envisat - Pass Details

Date: 09 December 2021
Orbit: 764 x 766 km, 98.2° (Epoch: 23 January)

Event Time Altitude Azimuth Distance (km) Brightness Sun altitude
Rises 06:04:17 0° 9° (N) 3,245 6.2 -18.9°
Reaches altitude 10° 06:06:38 10° 5° (N) 2,314 5.4 -18.5°
Maximum altitude 06:11:34 52° 290° (WNW) 948 3.1 -17.7°
Drops below altitude 10° 06:16:28 10° 215° (SW) 2,297 5.3 -16.9°
Sets 06:18:48 0° 211° (SSW) 3,218 6.1 -16.5°
